Station 45007 (LLNR 20595) - SOUTH MICHIGAN - 43NM East Southeast of Milwaukee, WI Image indicating link to RSS feed of recent meteorological observations for station 45007


Conditions at 45007 as of
(12:30 am EDT)
0430 GMT on 07/19/2024:
     

Click on the graph icon in the table below to see a time series plot of the last five days of that observation.

5-day plot - Wind Direction Wind Direction (WDIR):NNE ( 30 deg true )
5-day plot - Wind Speed Wind Speed (WSPD): 1.9 kts
5-day plot - Wind Gust Wind Gust (GST): 1.9 kts
5-day plot - Atmospheric Pressure Atmospheric Pressure (PRES):30.18 in
5-day plot - Air Temperature Air Temperature (ATMP): 67.6 °F
5-day plot - Water Temperature Water Temperature (WTMP): 71.1 °F
5-day plot - Dew Point Dew Point (DEWP): 54.5 °F
5-day plot - Wind Speed at 10 Meters Wind Speed at 10 meters (WSPD10M): 1.9 kts
5-day plot - Wind Speed at 20 Meters Wind Speed at 20 meters (WSPD20M): 1.9 kts
5-day plot -  Wind Speed, Wind Gust and Atmospheric Pressure Combined plot of Wind Speed, Gust, and Air Pressure
Supplemental Measurements
Lowest 1-minute Pressure
Time (EDT)Pressure
12:30 am30.18 in
Highest 1-minute Wind Speed
Time (EDT)5-day plot - 1-Minute Wind Speed WSPD 5-day plot - 1-Minute Wind Direction WDIR
12:22 am 1.9 kts NE ( 40 deg true )
Previous observations
TIME
(EDT)
5-day plot - Wind Direction
WDIR
 
5-day plot - Wind Speed
WSPD
kts
5-day plot - Wind Gust
GST
kts
5-day plot - Wave Height
WVHT
ft
5-day plot - Dominant Wave Period
DPD
sec
5-day plot - Average Wave Period
APD
sec
5-day plot - Mean Wave Direction
MWD
 
5-day plot - Atmospheric Pressure
PRES
in
5-day plot - Pressure Tendency
PTDY
in
5-day plot - Air Temperature
ATMP
°F
5-day plot - Water Temperature
WTMP
°F
5-day plot - Dew Point
DEWP
°F
5-day plot - Salinity
SAL
psu
5-day plot - Visibility
VIS
nmi
5-day plot - Tide (above MLLW)
TIDE
ft
2024-07-19 12:20 am NE 1.9 1.9 1.0 53.8 N30.18- 67.5 71.1 54.1---
2024-07-19 12:10 am NE 1.9 1.9 1.0-3.8 N30.18- 67.6 71.1 54.1---
2024-07-19 12:00 amNNE 1.9 3.9----30.18+0.01 67.8 71.1 53.4---
2024-07-18 11:50 pmNNE 3.9 3.9 1.3 53.8 N30.18- 67.6- 53.4---
2024-07-18 11:40 pmNNE 3.9 5.8 1.3-3.8 N30.17- 67.6 71.1 54.0---
2024-07-18 11:30 pmNNE 3.9 5.8----30.17- 67.6 71.1 53.8---
2024-07-18 11:20 pm NE 3.9 5.8 1.3 53.9 N30.17- 67.8 71.1 54.1---
2024-07-18 11:10 pm NE 3.9 5.8 1.3-3.9 N30.17- 67.6 71.1 54.0---
2024-07-18 11:00 pm NE 3.9 5.8----30.17+0.00 67.6 71.1 54.1---
2024-07-18 10:50 pm NE 3.9 3.9 1.3 54.1 N30.18- 67.5- 53.8---
2024-07-18 10:40 pm NE 3.9 3.9 1.3-4.1 N30.18- 67.6 71.1 54.1---
2024-07-18 10:30 pm NE 3.9 5.8----30.18- 67.6 71.1 53.4---
2024-07-18 10:20 pm NE 3.9 5.8 1.3 63.9 N30.18- 67.5 71.1 53.2---
2024-07-18 10:10 pm NE 3.9 5.8 1.3-3.9 N30.17- 67.5 71.1 53.2---
2024-07-18 10:00 pm NE 3.9 5.8----30.17-0.02 67.5 71.1 53.8---
2024-07-18 09:50 pm NE 5.8 7.8 1.3-4.0 N30.17- 67.5 71.1 53.2---
2024-07-18 09:40 pm NE 3.9 5.8----30.17- 67.5 71.1 53.4---
2024-07-18 09:30 pmNNE 3.9 5.8----30.17- 67.5 71.1 54.0---
2024-07-18 09:20 pm NE 3.9 5.8 1.3 54.0 N30.17- 67.5 71.1 53.8---
2024-07-18 09:10 pmNNE 5.8 5.8 1.3-4.0 N30.17- 67.5 71.1 52.9---
2024-07-18 09:00 pmNNE 3.9 7.8----30.17-0.02 67.5 71.1 53.4---
2024-07-18 08:50 pmNNE 3.9 5.8 1.3 54.0 N30.17- 67.5- 53.8---
2024-07-18 08:40 pmNNE 5.8 7.8----30.17- 67.5 71.1 54.1---
2024-07-18 08:30 pmNNE 5.8 7.8----30.17- 67.5 71.1 54.1---
2024-07-18 08:20 pmNNE 5.8 7.8 1.6 64.0 N30.18- 67.6 71.1 54.0---
2024-07-18 08:10 pmNNE 5.8 7.8----30.18- 67.5 71.1 54.3---
2024-07-18 08:00 pmNNE 5.8 7.8----30.18-0.02 67.5 71.1 54.1---
2024-07-18 07:50 pm N 5.8 5.8 1.6 54.0 N30.18- 67.5- 54.0---
2024-07-18 07:40 pm N 5.8 7.8----30.19- 67.5 71.1 54.3---
2024-07-18 07:20 pm N 5.8 7.8 2.0 64.0 N30.19- 67.5 71.1 54.0---
2024-07-18 07:10 pm N 5.8 7.8----30.19- 67.3 71.1 54.0---
2024-07-18 07:00 pm N 5.8 7.8----30.19-0.01 67.3 71.1 54.1---
2024-07-18 06:50 pm N 5.8 7.8 2.0 64.1 N30.19- 67.3 71.1 54.0---
2024-07-18 06:40 pm N 5.8 7.8----30.19- 67.1 71.1 54.0---
2024-07-18 06:30 pm N 5.8 7.8----30.19- 67.1 71.1 54.5---
2024-07-18 06:20 pm N 5.8 7.8 2.0 64.0 N30.19- 66.9 71.1 54.5---
2024-07-18 06:10 pm N 5.8 7.8 2.0-4.0 N30.19- 66.9 71.1 54.5---
2024-07-18 06:00 pm N 5.8 7.8----30.19-0.01 66.7 71.1 54.5---
2024-07-18 05:50 pm N 5.8 7.8 2.0 63.9 N30.19- 66.7- 55.4---
2024-07-18 05:40 pmNNW 5.8 7.8----30.19- 66.7 71.1 55.2---
2024-07-18 05:30 pmNNW 5.8 7.8----30.20- 66.7 71.1 55.4---
2024-07-18 05:20 pmNNW 5.8 7.8 2.3 64.1 N30.20- 66.6- 54.9---
2024-07-18 05:10 pmNNW 5.8 7.8 2.3-4.1 N30.20- 66.6 71.1 54.7---
2024-07-18 05:00 pm N 5.8 7.8----30.20-0.01 66.4 71.1 54.3---
2024-07-18 04:50 pmNNW 5.8 7.8 2.6 64.1 N30.21- 66.4 71.1 55.6---
2024-07-18 04:40 pmNNW 5.8 7.8 2.6-4.1 N30.20- 66.4 71.1 55.0---
2024-07-18 04:30 pm N 5.8 7.8----30.21- 66.4 70.9 55.0---
2024-07-18 04:20 pmNNW 7.8 9.7 2.6 64.1 N30.21- 66.2- 55.6---
2024-07-18 04:10 pmNNW 7.8 9.7----30.20- 66.2 70.9 55.2---
2024-07-18 04:00 pm N 7.8 9.7 2.6-4.1 N30.21-0.01 66.0 70.9 55.2---
2024-07-18 03:50 pm N 7.8 9.7 2.6 64.0 N30.21- 66.0- 55.4---
2024-07-18 03:40 pmNNW 5.8 9.7----30.21- 65.8 70.9 55.2---
2024-07-18 03:30 pmNNW 7.8 9.7----30.21- 66.0 70.9 55.0---
2024-07-18 03:20 pmNNW 7.8 9.7 3.0 64.2 N30.21- 66.0- 55.9---
2024-07-18 03:10 pmNNW 7.8 11.7----30.21- 65.8 70.9 55.6---
2024-07-18 03:00 pm N 7.8 9.7----30.21+0.01 65.8 70.9 55.4---
2024-07-18 02:50 pm N 7.8 11.7 3.0 64.1 N30.21- 65.8- 55.2---
2024-07-18 02:40 pm N 7.8 11.7----30.22- 65.8 70.9 54.7---
2024-07-18 02:30 pmNNW 7.8 11.7----30.22- 65.8 70.7 55.0---
2024-07-18 02:20 pm N 7.8 9.7----30.22- 65.8 70.7 54.5---
2024-07-18 02:10 pm N 9.7 11.7----30.22- 65.7 70.7 54.0---
2024-07-18 02:00 pm N 9.7 11.7----30.22+0.02 65.8 70.7 54.5---
2024-07-18 01:50 pm N 9.7 13.6 3.6 64.3 N30.21- 65.8- 54.1---
2024-07-18 01:40 pm N 9.7 13.6----30.21- 65.8 70.7 54.7---
2024-07-18 01:30 pm N 11.7 13.6----30.21- 65.8 70.7 54.9---
2024-07-18 01:20 pm N 11.7 13.6 3.6 64.1 N30.21- 65.8 70.7 54.9---
2024-07-18 01:10 pm N 11.7 13.6----30.21- 65.7 70.7 54.5---
2024-07-18 01:00 pm N 11.7 13.6 3.6-4.1 N30.21+0.01 65.7 70.7 54.3---
2024-07-18 12:50 pm N 11.7 13.6 3.6 64.3 N30.22- 65.7 70.7 54.3---
2024-07-18 12:40 pm N 11.7 15.5 3.6-4.3 N30.21- 65.7 70.7 54.5---
2024-07-18 12:30 pm N 11.7 15.5----30.21- 65.7 70.7 54.1---
2024-07-18 12:20 pm N 13.6 15.5 3.9 54.2 N30.21- 65.7 70.7 54.0---
2024-07-18 12:10 pm N 13.6 15.5 3.9-4.2 N30.21- 65.7 70.7 53.8---
2024-07-18 12:00 pm N 15.5 17.5----30.20+0.02 65.7 70.7 53.8---
2024-07-18 11:50 am N 13.6 17.5 3.9 74.4 N30.20- 65.7 70.7 53.2---
2024-07-18 11:40 am N 13.6 17.5 3.9-4.4 N30.21- 65.7 70.7 53.8---
2024-07-18 11:30 am N 13.6 17.5----30.20- 65.7 70.7 53.4---
2024-07-18 11:20 am N 13.6 17.5 3.9 64.4 N30.20- 65.7 70.5 54.1---
2024-07-18 11:10 am N 13.6 17.5 3.9-4.4 N30.20- 65.7 70.5 53.6---
2024-07-18 11:00 am N 13.6 19.4----30.20+0.03 65.8 70.5 54.1---
2024-07-18 10:50 am N 13.6 17.5 3.9 74.5 N30.20- 65.7 70.5 53.6---
2024-07-18 10:40 am N 13.6 15.5 3.9-4.5 N30.20- 65.5 70.5 54.7---
2024-07-18 10:30 am N 13.6 19.4----30.20- 65.3 70.5 54.1---
2024-07-18 10:20 am N 13.6 17.5 3.9 74.4 N30.20- 65.5 70.5 54.5---
2024-07-18 10:10 am N 11.7 15.5----30.20- 65.3 70.5 54.7---
2024-07-18 10:00 am N 13.6 15.5----30.20+0.04 65.5 70.5 54.1---
2024-07-18 09:50 am N 13.6 17.5 4.3 74.6 N30.20- 65.3 70.5 54.0---
2024-07-18 09:40 am N 13.6 15.5 4.3-4.6 N30.19- 65.3 70.5 53.8---
2024-07-18 09:30 am N 13.6 17.5----30.19- 65.3 70.5 53.2---
2024-07-18 09:20 am N 13.6 17.5 4.3 64.6 N30.19- 65.3 70.5 54.0---
2024-07-18 09:10 am N 13.6 15.5 4.3-4.6 N30.18- 65.3 70.5 53.2---
2024-07-18 09:00 am N 13.6 17.5----30.18+0.03 65.5 70.5 55.0---
2024-07-18 08:50 am N 13.6 19.4 4.3 74.6 N30.18- 65.3 70.5 54.5---
2024-07-18 08:40 am N 15.5 17.5----30.18- 65.3 70.5 54.0---
2024-07-18 08:30 am N 15.5 17.5----30.18- 65.3 70.5 53.8---
2024-07-18 08:20 am N 15.5 19.4 4.3 64.5 N30.18- 65.3 70.5 54.1---
2024-07-18 08:10 am N 13.6 17.5----30.17- 65.3 70.5 54.3---
2024-07-18 08:00 am N 15.5 17.5----30.17+0.04 65.3 70.5 54.5---
2024-07-18 07:50 am N 15.5 19.4 4.9 74.8 N30.17- 65.3- 54.7---
2024-07-18 07:40 am N 15.5 19.4----30.16- 65.3 70.5 54.5---
2024-07-18 07:30 am N 15.5 19.4----30.16- 65.3 70.5 54.5---
2024-07-18 07:20 am N 15.5 19.4 4.3 74.7 N30.16- 65.5 70.5 55.0---
2024-07-18 07:10 am N 15.5 19.4 4.3-4.7 N30.16- 65.5 70.5 54.9---
2024-07-18 07:00 am N 15.5 19.4----30.16+0.04 65.3 70.5 54.9---
2024-07-18 06:50 am N 15.5 17.5 4.6 74.9 N30.16- 65.3 70.5 54.9---
2024-07-18 06:40 am N 13.6 17.5----30.15- 65.3 70.5 54.9---
2024-07-18 06:30 am N 15.5 19.4----30.15- 65.3 70.5 54.5---
2024-07-18 06:20 am N 13.6 17.5 4.3 74.7 N30.15- 65.3 70.5 54.5---
2024-07-18 06:10 am N 13.6 17.5 4.3-4.7 N30.15- 65.5 70.7 54.7---
2024-07-18 06:00 am N 13.6 17.5----30.14+0.03 65.5 70.5 54.5---
2024-07-18 05:50 am N 13.6 17.5 4.6 74.8 N30.14- 65.5 70.5 54.1---
2024-07-18 05:40 am N 13.6 17.5 4.6-4.8 N30.14- 65.7 70.5 54.9---
2024-07-18 05:30 am N 13.6 17.5----30.14- 65.7 70.7 54.9---
2024-07-18 05:20 am N 13.6 17.5 4.3 64.8 N30.14- 65.7 70.7 54.1---
2024-07-18 05:10 am N 13.6 17.5 4.3-4.8 N30.13- 65.8 70.7 55.8---
2024-07-18 05:00 am N 13.6 19.4----30.13+0.01 65.8 70.7 55.0---
2024-07-18 04:50 am N 13.6 17.5 4.9-4.9 N--- 70.7----
2024-07-18 04:40 am N 13.6 15.5 4.9-4.9 N30.13- 65.7 70.7 55.2---
2024-07-18 04:30 am N 13.6 17.5----30.13- 65.5 70.7 55.2---
2024-07-18 04:20 am N 13.6 17.5 4.6 74.7 N30.12- 65.3 70.7 55.8---
2024-07-18 04:10 amNNE 13.6 17.5 4.6-4.7 N30.12- 65.3 70.7 55.9---
2024-07-18 04:00 amNNE 13.6 17.5----30.12+0.02 65.3 70.7 55.6---
2024-07-18 03:50 amNNE 13.6 17.5 4.9-4.8 N--- 70.7----
2024-07-18 03:40 amNNE 15.5 17.5----30.12- 65.3 70.7 55.8---
2024-07-18 03:30 amNNE 15.5 17.5----30.12- 65.3 70.7 55.9---
2024-07-18 03:20 amNNE 15.5 19.4 5.2 64.8 N30.12- 65.5- 55.9---
2024-07-18 03:10 amNNE 13.6 17.5 5.2-4.8 N30.12- 65.5 70.7 56.5---
2024-07-18 03:00 am N 15.5 21.4----30.12+0.03 65.8 70.7 55.8---
2024-07-18 02:50 am N 17.5 21.4 5.2 64.7 N30.12- 65.8- 55.9---
2024-07-18 02:40 amNNE 17.5 21.4----30.12- 65.8 70.9 56.3---
2024-07-18 02:30 am N 17.5 21.4----30.12- 66.0 70.9 56.1---
2024-07-18 02:20 am N 17.5 23.3 5.2 64.5 N30.13- 66.0 70.9 55.8---
2024-07-18 02:10 am N 17.5 21.4 5.2-4.5 N30.12- 66.0 70.9 56.5---
2024-07-18 02:00 am N 19.4 23.3----30.12+0.05 66.0 70.9 56.1---
2024-07-18 01:50 am N 17.5 21.4 5.2 64.5NNE30.12- 66.0- 56.7---
2024-07-18 01:40 am N 19.4 23.3----30.11- 66.2 70.9 56.5---
2024-07-18 01:30 am N 19.4 21.4----30.11- 66.0 71.1 57.2---
2024-07-18 01:20 am N 19.4 23.3 4.9 54.3 N30.11- 66.2 71.1 57.4---
2024-07-18 01:10 am N 19.4 23.3----30.11- 66.4 71.1 57.0---
2024-07-18 01:00 am N 19.4 25.3----30.11+0.06 66.4 71.1 57.2---
2024-07-18 12:50 am N 21.4 25.3 4.9 64.4 N30.10- 66.6 71.1 57.2---
2024-07-18 12:40 am N 21.4 23.3----30.09- 66.7 71.1 58.5---
2024-07-18 12:30 am N 19.4 23.3----30.09- 66.9 71.1 59.5---
2024-07-18 12:20 am N 17.5 21.4 4.3 54.2 N30.09- 66.9- 59.7---
2024-07-18 12:10 am N 17.5 21.4 4.3-4.2 N30.09- 67.1 71.2 59.2---
2024-07-18 12:00 am N 19.4 21.4----30.09+0.05 67.1 71.2 58.6---
2024-07-17 11:50 pm N 19.4 23.3 3.9 54.0 N30.09- 67.3 71.2 59.2---

Detailed Wave Summary
for 45007 as of (12:10 am EDT)
0410 GMT on 07/19/2024:

These wave data are displayed in rounded times.

     

Click on the graph icon in the table below to see a time series plot of the last five days of that observation.

5-day plot - Significant Wave Height Significant Wave Height (WVHT): 1.0 ft
5-day plot - Swell Height Swell Height (SwH): 0.7 ft
5-day plot - Swell Period Swell Period (SwP): 5.0 sec
5-day plot - Swell Direction Swell Direction (SwD): N
5-day plot - Wind Wave Height Wind Wave Height (WWH): 0.7 ft
5-day plot - Wind Wave Period Wind Wave Period (WWP): 3.8 sec
5-day plot - Wind Wave Direction Wind Wave Direction (WWD): N
5-day plot - Average Wave Period Average Wave Period (APD): 3.8 sec
Previous observations
TIME
(EDT)
5-day plot - Wave Height
WVHT
ft
5-day plot - Swell Height
SwH
ft
5-day plot - Swell Period
SwP
sec
5-day plot - Swell Direction
SwD
 
5-day plot - Wind Wave Height
WWH
ft
5-day plot - Wind Wave Period
WWP
sec
5-day plot - Wind Wave Direction
WWD
 
5-day plot - Wave Steepness
STEEPNESS
 
5-day plot - Average Wave Period
APD
sec
2024-07-18 11:40 pm 1.3 1.0 4.8 N 0.7 3.6 N N/A 3.8
2024-07-18 11:10 pm 1.3 1.0 5.3 N 0.7 4.0 N N/A 3.9
2024-07-18 10:40 pm 1.3 1.0 5.3 N 0.7 3.8 N N/A 4.1
2024-07-18 10:10 pm 1.3 1.0 5.6 N 1.0 3.7 N N/A 3.9
2024-07-18 09:40 pm 1.3 1.0 5.3 N 0.7 3.4 N N/A 4.0
2024-07-18 09:10 pm 1.3 1.0 4.8- 1.0 4.0 N N/A 4.0
2024-07-18 08:40 pm 1.3 1.0 5.3 N 1.0 3.6 N N/A 4.0
2024-07-18 08:10 pm 1.6 1.3 5.6 N 1.0 3.8 N N/A 4.0
2024-07-18 07:40 pm 1.6 1.3 5.3 N 1.0 4.0 N N/A 4.0
2024-07-18 07:10 pm 2.0 1.6 5.6 N 1.0 3.7 N N/A 4.0
2024-07-18 06:40 pm 2.0 1.6 5.6 N 1.0 3.6 N N/A 4.1
2024-07-18 06:10 pm 2.0 1.6 5.9 N 1.3 3.7- N/A 4.0
2024-07-18 05:40 pm 2.0 1.6 5.9 N 1.3 3.7 N N/A 3.9
2024-07-18 05:10 pm 2.3 2.0 5.9 N 1.3 4.0 N N/A 4.1
2024-07-18 04:40 pm 2.6 2.0 5.9 N 1.3 4.0 N N/A 4.1
2024-07-18 04:10 pm 2.6 2.3 5.9 N 1.6 3.8 N STEEP 4.1
2024-07-18 03:40 pm 2.6 2.3 6.2 N 1.6 4.0 N STEEP 4.0
2024-07-18 03:10 pm 3.0 2.3 5.6 N 1.6 4.0 N STEEP 4.2
2024-07-18 02:40 pm 3.0 2.6 5.9 N 1.6 3.7 N STEEP 4.1
2024-07-18 01:40 pm 3.6 2.3 5.9 N 3.0 5.0 NNE STEEP 4.3
2024-07-18 01:10 pm 3.6 2.0 5.6 N 3.0 4.2 N STEEP 4.1
2024-07-18 12:40 pm 3.6 2.0 6.2 N 3.3 4.8 N STEEP 4.3
2024-07-18 12:10 pm 3.9 1.0 10.0 N 3.6 4.8 NVERY_STEEP 4.2
2024-07-18 11:40 am 3.9 0.0-- 3.9 6.7 N STEEP 4.4
2024-07-18 11:10 am 3.9 0.0-- 3.9 6.2 N STEEP 4.4
2024-07-18 10:40 am 3.9 1.0 10.8 NE 3.9 6.7 N STEEP 4.5
2024-07-18 10:10 am 3.9 1.3 7.1 N 3.6 6.2 N AVERAGE 4.4
2024-07-18 09:40 am 4.3 2.3 6.7 N 3.3 5.6 N STEEP 4.6
2024-07-18 09:10 am 4.3 1.0 13.8 SE 3.9 6.2 N STEEP 4.6
2024-07-18 08:40 am 4.3 0.0-- 4.3 7.1 N STEEP 4.6
2024-07-18 08:10 am 4.3 0.0-- 4.3 5.9 N STEEP 4.5
2024-07-18 07:40 am 4.9 0.0-- 4.9 6.7 N STEEP 4.8
2024-07-18 07:10 am 4.3 0.0-- 4.3 7.1 N STEEP 4.7
2024-07-18 06:40 am 4.6 0.0-- 4.6 6.7 N STEEP 4.9
2024-07-18 06:10 am 4.3 0.0-- 4.3 6.7 N STEEP 4.7
2024-07-18 05:40 am 4.6 0.0-- 4.6 6.7 N STEEP 4.8
2024-07-18 05:10 am 4.3 0.0-- 4.3 6.2- STEEP 4.8
2024-07-18 04:40 am 4.9 2.6 6.7 N 3.9 4.2 N STEEP 4.9
2024-07-18 04:10 am 4.6 2.3 6.7 N 3.9 5.6 N STEEP 4.7
2024-07-18 03:40 am 4.9 0.7 11.4 N 4.9 6.2 N STEEP 4.8
2024-07-18 03:10 am 5.2 0.0-- 5.2 5.9 NVERY_STEEP 4.8
2024-07-18 02:40 am 5.2 0.3 10.0NNE 5.2 5.9 NVERY_STEEP 4.7
2024-07-18 02:10 am 5.2 0.0 10.8SSW 5.2 5.6 NVERY_STEEP 4.5
2024-07-18 01:40 am 5.2 0.0-- 5.2 5.9 NNEVERY_STEEP 4.5
2024-07-18 01:10 am 4.9 0.0-- 4.9 5.3 NVERY_STEEP 4.3
2024-07-18 12:40 am 4.9 0.0 11.4 N 4.9 5.6 NVERY_STEEP 4.4
2024-07-18 12:10 am 4.3 0.3 9.1 S 4.3 5.0 NVERY_STEEP 4.2

Plot of wave energy versus frequency (and period)